Página principal
METAR-TAF:

METAR-TAF

Aeroportos :

Podor, Senegal

latitude: 16-39N, longitude: 014-58W, altura: 6 m

Observação actual do tempo

O boletim foi feito há 28 minutos, às 00:00 UTC
Vento 2 kt de oeste
Temperatura 26°C
Humidade 51%
Pressão 1011 hPa
Visibilidade 10 km ou mais
sem nuvens abaixo de 1500 metros e sem cumulonimbus

METAR: GOSP 130000Z 28002KT CAVOK 26/15 Q1011

Hora: 00:28 (00:28 UTC)


TAF: em falta

Observações e previsões do tempo de mais de 4000 aeroportos (mensagens METAR e TAF).

As estações disponíveis são os pontos amarelos e vermelhos sobre o mapa.

Mova o rato sobre o mapa para ver o nome da estação.

Depois clique no ponto para visualizar as observações e previsões meteorológicas.

Para alterar o mapa : clique nos botões verdes com uma cruz preta para aumentar o zoom; no botão verde com uma pitada de zoom; ou nas setas verdes para mapas adjacentes.


METAR-TAF: